User: anonymous   Login
Location: Oshawa
(43.9000°N, 78.8670°W)
Time: 21:50:15
(UTC-05:00)
Language:

Envisat - Orbit

View from above orbital plane
View from above orbital plane
View from above satellite
View from above satellite

Ground track
Ground track

The orbit data is extracted from the following two-line orbital elements,

1 27386U 02009A   17345.41341363  .00000018  00000-0  19498-4 0  9996
2 27386  98.2097  23.0842 0001505  83.1744 276.9612 14.37910896826546
Epoch (UTC): 11 December 2017 09:55:18
Eccentricity: 0.0001505
inclination: 98.2097°
perigee height: 764 km
apogee height: 766 km
right ascension of ascending node: 23.0842°
argument of perigee: 83.1744°
revolutions per day: 14.37910896
mean anomaly at epoch: 276.9612°
orbit number at epoch: 82654

The dashed part of the orbit path shows where the satellite is in the earth's shadow,  

DLR